This is the latest recevied weather packets stored in our database for station/object VE7PRT-1. If no packets are shown the sender has not sent any weather packets the latest 10 day(s).
| Time | Temp. | Humidity | Pressure | Rain* | Wind** | Luminosity | Snow |
|---|---|---|---|---|---|---|---|
| 1777588509 | 18.33° C | 76% | 1019.8 hPa | 0 mm | - | - | - |
| 1777587644 | 17.78° C | 79% | 1020 hPa | 0 mm | - | - | - |
| 1777586804 | 17.78° C | 79% | 1020.2 hPa | 0 mm | - | - | - |
| 1777585994 | 18.33° C | 78% | 1020.3 hPa | 0 mm | - | - | - |
| 1777585129 | 17.22° C | 78% | 1020.5 hPa | 0 mm | - | - | - |
| 1777584344 | 16.67° C | 79% | 1020.6 hPa | 0 mm | - | - | - |
| 1777583604 | 16.67° C | 81% | 1020.7 hPa | 0 mm | - | - | - |
| 1777582746 | 16.11° C | 85% | 1020.7 hPa | 0 mm | - | - | - |
| 1777581936 | 16.11° C | 87% | 1020.6 hPa | 0 mm | - | - | - |
| 1777581214 | 15.56° C | 89% | 1020.8 hPa | 0 mm | - | - | - |
| 1777580319 | 15° C | 89% | 1020.9 hPa | 0 mm | - | - | - |
| 1777579487 | 15° C | 89% | 1021 hPa | 0 mm | - | - | - |
| 1777578619 | 15° C | 89% | 1021.1 hPa | 0 mm | - | - | - |
| 1777577766 | 14.44° C | 89% | 1021.1 hPa | 0 mm | - | - | - |
| 1777577044 | 15° C | 88% | 1021.2 hPa | 0 mm | - | - | - |
| 1777576219 | 15° C | 90% | 1021.1 hPa | 0 mm | - | - | - |
| 1777575399 | 14.44° C | 89% | 1021.2 hPa | 0 mm | - | - | - |
| 1777574639 | 14.44° C | 91% | 1021.3 hPa | 0 mm | - | - | - |
| 1777573776 | 14.44° C | 93% | 1021.3 hPa | 0 mm | - | - | - |
| 1777572930 | 13.89° C | 93% | 1021.4 hPa | 0 mm | - | - | - |
| 1777572194 | 13.33° C | 94% | 1021.5 hPa | 0 mm | - | - | - |
| 1777571329 | 13.33° C | 94% | 1021.5 hPa | 0 mm | - | - | - |
| 1777570599 | 13.89° C | 93% | 1021.6 hPa | 0 mm | - | - | - |
| 1777569747 | 13.33° C | 94% | 1021.5 hPa | 0 mm | - | - | - |
| 1777568864 | 13.33° C | 94% | 1021.5 hPa | 0 mm | - | - | - |
* Rain latest hour (hover to see other rain measurements)
** Current wind speed in m/s (hover to see current wind gust speed)